User: anonymous   Login
Location: Cluny
(50.9333°N, 112.8167°W)
Time: 10:31:50
(UTC-07:00)
Language:

Hamsat - Orbit

View from above orbital plane
View from above orbital plane
View from above satellite
View from above satellite

Ground track
Ground track

The orbit data is extracted from the following two-line orbital elements,

1 28650U 05017B   17052.13723536  .00000383  00000-0  46714-4 0  9999
2 28650  97.6380  30.5064 0024242 151.6240 208.6303 14.88565447638907
Epoch (UTC): 21 February 2017 03:17:37
Eccentricity: 0.0024242
inclination: 97.6380°
perigee height: 585 km
apogee height: 619 km
right ascension of ascending node: 30.5064°
argument of perigee: 151.6240°
revolutions per day: 14.88565447
mean anomaly at epoch: 208.6303°
orbit number at epoch: 63890

The dashed part of the orbit path shows where the satellite is in the earth's shadow,  

DLR